N5TM-4 Weather Reports


Display with metric or nautical units.
time (UTC)temp
F
wind
direction
speed
MPH
gust
MPH
rain 1hr
in
rain 24hr
in
rain mn
in
humidity
%
barometer
mb
20190323210138 73 165 6.0 20.0 0.00 0.00 0.00 68 1019.0
20190323204717 73 157 10.0 17.0 0.00 0.00 0.00 66 1018.9
20190323203239 74 166 4.0 14.0 0.00 0.00 0.00 66 1019.2
20190323201634 75 148 5.0 14.0 0.00 0.00 0.00 65 1019.5
20190323200112 73 137 8.0 13.0 0.00 0.00 0.00 67 1019.6
20190323194618 72 161 6.0 15.0 0.00 0.00 0.00 70 1019.9
20190323193130 72 163 6.0 15.0 0.00 0.00 0.00 70 1019.9
20190323191613 72 162 6.0 12.0 0.00 0.00 0.00 71 1019.9
20190323190144 71 162 8.0 15.0 0.00 0.00 0.00 72 1020.1
20190323184705 71 144 6.0 12.0 0.00 0.00 0.00 72 1020.3
20190323183107 71 167 5.0 16.0 0.00 0.00 0.00 72 1020.3
20190323181616 72 144 6.0 15.0 0.00 0.00 0.00 71 1020.3
20190323180053 71 167 6.0 12.0 0.00 0.00 0.00 73 1020.5
20190323174613 70 142 9.0 15.0 0.00 0.00 0.00 74 1020.8
20190323173125 70 133 7.0 10.0 0.00 0.00 0.00 77 1021.0
20190323171712 69 142 5.0 9.0 0.00 0.00 0.00 79 1021.2
20190323170055 69 157 4.0 10.0 0.00 0.00 0.00 79 1021.5
20190323164600 69 167 5.0 10.0 0.00 0.00 0.00 78 1021.7
20190323163050 69 166 3.0 8.0 0.00 0.00 0.00 78 1021.7
20190323161547 69 173 7.0 11.0 0.00 0.00 0.00 77 1021.7
20190323160114 69 163 3.0 8.0 0.00 0.00 0.00 78 1021.6
20190323154529 68 168 4.0 8.0 0.00 0.00 0.00 78 1021.6
20190323153024 68 155 5.0 10.0 0.00 0.00 0.00 79 1021.4
20190323151612 68 161 4.0 10.0 0.00 0.00 0.00 79 1021.1
20190323150044 68 137 3.0 6.0 0.00 0.00 0.00 79 1021.1
20190323144518 66 156 4.0 12.0 0.00 0.00 0.00 82 1021.0
20190323143015 65 166 3.0 7.0 0.00 0.00 0.00 85 1020.9
20190323141509 64 169 2.0 6.0 0.00 0.00 0.00 86 1020.7
20190323140132 63 167 2.0 6.0 0.00 0.00 0.00 88 1020.6
20190323134703 62 168 2.0 6.0 0.00 0.00 0.00 89 1020.3
20190323133235 61 171 1.0 5.0 0.00 0.00 0.00 90 1020.1
20190323131636 60 171 0.0 3.0 0.00 0.00 0.00 90 1020.0
20190323130130 60 171 0.0 2.0 0.00 0.00 0.00 91 1020.0
20190323124627 59 171 1.0 2.0 0.00 0.00 0.00 91 1019.7
20190323123128 59 171 0.0 2.0 0.00 0.00 0.00 91 1019.5
20190323121739 59 171 0.0 2.0 0.00 0.00 0.00 91 1019.4
20190323120246 59 171 0.0 3.0 0.00 0.00 0.00 92 1019.1
20190323114613 59 171 0.0 2.0 0.00 0.00 0.00 93 1018.9
20190323113121 58 171 0.0 1.0 0.00 0.00 0.00 93 1018.7
20190323111649 58 171 0.0 1.0 0.00 0.00 0.00 93 1018.4
20190323110202 58 171 0.0 0.0 0.00 0.00 0.00 93 1018.3
20190323104643 58 171 0.0 2.0 0.00 0.00 0.00 93 1018.4
20190323103101 58 171 0.0 0.0 0.00 0.00 0.00 93 1018.4
20190323101611 58 171 0.0 1.0 0.00 0.00 0.00 94 1018.3
20190323100136 59 171 0.0 2.0 0.00 0.00 0.00 94 1018.3
20190323094623 58 171 1.0 2.0 0.00 0.00 0.00 94 1018.3
20190323093108 58 171 1.0 2.0 0.00 0.00 0.00 94 1018.3
20190323091604 58 171 1.0 2.0 0.00 0.00 0.00 94 1018.4
20190323090058 58 171 0.0 2.0 0.00 0.00 0.00 94 1018.5
20190323084653 58 171 0.0 2.0 0.00 0.00 0.00 93 1018.5
20190323083052 58 171 0.0 1.0 0.00 0.00 0.00 93 1018.6
20190323081634 58 171 0.0 1.0 0.00 0.00 0.00 93 1018.7
20190323080121 58 171 0.0 1.0 0.00 0.00 0.00 92 1018.8
20190323074541 59 171 0.0 1.0 0.00 0.00 0.00 92 1018.9
20190323073114 59 171 0.0 2.0 0.00 0.00 0.00 91 1019.0
20190323071616 59 171 0.0 3.0 0.00 0.00 0.00 91 1019.0
20190323070038 59 171 0.0 3.0 0.00 0.00 0.00 90 1019.2
20190323064548 60 171 1.0 5.0 0.00 0.00 0.00 89 1019.2
20190323063043 60 171 2.0 4.0 0.00 0.00 0.00 89 1019.2
20190323061517 60 171 1.0 3.0 0.00 0.00 0.00 88 1019.3
20190323060053 60 171 1.0 4.0 0.00 0.00 0.00 87 1019.3
20190323054519 60 171 2.0 5.0 0.00 0.00 0.00 86 1019.3
20190323053134 60 171 2.0 4.0 0.00 0.00 0.00 85 1019.4
20190323051524 60 171 1.0 4.0 0.00 0.00 0.00 83 1019.6
20190323050010 60 171 2.0 5.0 0.00 0.00 0.00 81 1019.8
20190323044558 60 171 1.0 3.0 0.00 0.00 0.00 79 1019.9
20190323043037 61 171 0.0 4.0 0.00 0.00 0.00 76 1019.9
20190323041508 61 171 2.0 4.0 0.00 0.00 0.00 73 1019.9
20190323040043 61 172 1.0 6.0 0.00 0.00 0.00 70 1020.0
20190323034513 62 171 2.0 4.0 0.00 0.00 0.00 67 1020.1
20190323033014 62 171 2.0 5.0 0.00 0.00 0.00 65 1020.1
20190323031512 62 171 2.0 4.0 0.00 0.00 0.00 62 1020.1
20190323030008 63 171 1.0 3.0 0.00 0.00 0.00 59 1020.0
20190323024505 64 171 0.0 3.0 0.00 0.00 0.00 57 1020.0
20190323023015 65 171 1.0 5.0 0.00 0.00 0.00 55 1019.8
20190323021508 65 169 1.0 5.0 0.00 0.00 0.00 52 1019.7
20190323020008 66 169 2.0 6.0 0.00 0.00 0.00 50 1019.4
20190323014507 67 168 1.0 7.0 0.00 0.00 0.00 47 1019.2
20190323013007 68 167 2.0 7.0 0.00 0.00 0.00 45 1018.9
20190323011502 69 191 2.0 6.0 0.00 0.00 0.00 43 1018.8
20190323010005 70 150 5.0 8.0 0.00 0.00 0.00 42 1018.6
20190323004501 71 137 2.0 8.0 0.00 0.00 0.00 41 1018.6
20190323003217 72 167 5.0 10.0 0.00 0.00 0.00 39 1018.4
20190323001647 73 158 5.0 10.0 0.00 0.00 0.00 38 1018.2
20190323000133 74 169 7.0 15.0 0.00 0.00 0.00 37 1018.2
20190322234649 75 182 5.0 13.0 0.00 0.00 0.00 37 1018.0
20190322233142 75 147 5.0 11.0 0.00 0.00 0.00 36 1017.9
20190322231719 76 157 6.0 15.0 0.00 0.00 0.00 36 1017.8
20190322230140 77 148 5.0 15.0 0.00 0.00 0.00 35 1017.8
20190322224650 78 173 4.0 11.0 0.00 0.00 0.00 35 1017.7
20190322223125 78 137 4.0 9.0 0.00 0.00 0.00 34 1017.9
20190322221635 79 181 4.0 8.0 0.00 0.00 0.00 34 1018.0
20190322220115 79 188 2.0 7.0 0.00 0.00 0.00 33 1018.1
20190322214628 79 157 4.0 11.0 0.00 0.00 0.00 32 1018.2
20190322213128 79 153 2.0 7.0 0.00 0.00 0.00 33 1018.2
20190322211624 79 143 5.0 15.0 0.00 0.00 0.00 32 1018.4